ONEWEB-0008, 44059

Orbit data source: Space-Track

ONEWEB-0008, 44059 is a payload satellite owned by One Web (UK) in LEO that was launched on Wed, 27 Feb 2019 UTC via a SOYUZ-ST-B launch vehicle from the French Guiana (FRGUI). Payloads include a variety of satellites, spacecraft, and rockets equipped with specific instruments for various scientific and technological missions. These include communications satellites like Starlink; space stations such as the ISS; scientific satellites like the Hubble; Earth observation satellites from companies like Planet Labs, Umbra, and HawkEye 360; GPS; miniature CubeSats for education and research; and military/defense satellites.

Loading next visibility...
ONEWEB-0008 details
Identifier
44059, 2019-010C
Orbit
LEO
Last TLE update19 hours ago
Origin
Flag of UKOne Web (UK)
ManufacturerAirbus/Toulouse
MissionOperational Commercial Communications
Bus & MotorARROW, Unknown motor
Mass148 kg wet, ~140 kg dry
Launch date (UTC)
2019-02-27 (6 years ago)
Launch vehicle
SOYUZ-ST-B
Launch site
French Guiana (FRGUI)
Object type
Payload
Rocket body
Debris
Shape & HBRTrap Box + 2 Pan, 5 m
Radar Cross Section2.957 m², Large (>1 m²)

Expand to show TLE details & history

TLE from 19 hours ago
0 ONEWEB-0008
1 44059U 19010C   25014.39660516  .00000338  00000-0  85063-3 0  9990
2 44059  87.9112 332.1568 0001957  78.3319 281.8031 13.16592930283468
Epoch: 2025-01-14T09:31Z
Definitive object data (Epoch: 2025-01-14T09:31:06.685Z)
Latitude-0.00009°
Longitude75.27505°
Altitude1,200.356 km
Speed7.254 km/s
True Right ascension22h 08m 37s
True Declination0° 00' 00"
Sunlit
Object was in daylight at TLE epoch
Visualization TLE readout
Latitude55.29744°
Longitude-107.88484°
Altitude1,206.001 km
Speed7.257 km/s
Apparent Right ascension13h 48m 13s
Apparent Declination21° 09' 24"
Sunlit
Object is in full shadow
Visualization observer readout
Local Sidereal Time05:02:23
Azimuth46.079° ENE
Elevation-14.005°
Doppler factor1
Orbital elements
Apogee altitude1,196.354 km
Perigee altitude1,193.39 km
Semi-major axis7,573.009 km
Eccentricity0.0001957
Inclination87.9112°
RAAN332.1568°
Arg. of periapsis78.3319°
True anomaly281.78115°
Mean anomaly281.8031°
Eccentric anomaly281.79212°
Mean motion3.29337 °/min
BSTAR0.00085063
Orbital period109.31 mins
Loading maneuver chart data...
Loading historical data...
Loading historical data...
Loading historical data...
Loading historical data...
Loading historical data...
Loading historical data...
Loading historical data...

ONEWEB-0008 Visibility forecast

Observer location: undefined°, undefined

Span
Click to sort rows by Start time (UTC) header in descending order
Start Az.
Max El. time (UTC)
Max El. Az.
Max El.
End time (UTC)
End Az.
11 mins2025-01-15 08:01:20.521Z26.89° NE2025-01-15 08:06:20.521Z76.977° E24.808°2025-01-15 08:12:20.521Z134.073° SE
12 mins2025-01-15 09:50:20.521Z346.606° N2025-01-15 09:56:20.521Z271.741° WNW38.208°2025-01-15 10:02:20.521Z204.791° SW
10 mins2025-01-15 20:18:20.521Z127.087° SE2025-01-15 20:23:20.521Z72.369° E26.105°2025-01-15 20:28:20.521Z24.527° NE
12 mins2025-01-15 22:06:20.521Z206.301° SW2025-01-15 22:12:20.521Z283.355° WNW36.759°2025-01-15 22:18:20.521Z347.619° N
|